SCP
0 0 0 0 0 0 0 0 0 0 0 0 0 0 0 0 0 0 -0 -0 0 0 0 0 0 0 0 0 0 0 0 0 0 0 0 0 0 0 0 0 0 0 0
0 0 0 0 0 0 0 0 0 0 0 0 0 0 0 0 0 0 0 0 0 0 0 0 0 0 0 0 0 0 0 0 0 0 0 0 0 0 0 0 0 0 0
0 0 0 0 0 0 0 0 0 0 0 0 0 0 0 0 0 0 0 0 0 0 0 0 0 0 0 0 0 0 0 0 0 0 0 0 0 0 0 0 0 0 0
0 0 0 0 0 0 0 0 0 0 0 0 0 0 0 0 0 0 0 0 0 0 0 0 0 0 0 0 0 0 0 0 0 0 0 0 0 0 0 0 0 0 0
0 0 0 0 0 0 0 0 0 0 0 0 0 0 0 0 0 0 0 0 0 0 0 0 0 0 0 0 0 0 0 0 0 0 0 0 0 0 0 0 0 0 0
0 0 0 0 0 0 0 0 0 0 0 0 0 0 0 0 0 0 0 0 0 0 0 0 0 0 0 0 0 0 0 0 0 0 0 0 0 0 0 0 0 0 0
0 0 0 0 0 0 0 0 0 0 0 0 0 0 0 0 0 0 0 0 0 0 0 0 0 0 0 0 0 0 0 0 0 0 0 0 0 0 0 0 0 0 0
0 0 0 0 0 0 0 0 0 0 0 0 0 0 0 0 0 0 0 0 0 0 0 0 0 0 0 0 0 0 0 0 0 0 0 0 0 0 0 0 0 0 0
0 0 0 0 0 0 0 0 0 0 0 0 0 0 0 0 0 0 0 0 0 0 0 0 0 0 0 0 0 0 0 0 0 0 0 0 0 0 0 0 0 0 0
0 0 0 0 0 0 0 0 0 0 0 0 0 0 0 0 0 0 0 0 0 0 0 0 0 0 0 0 0 0 0 0 0 0 0 0 0 0 0 0 0 0 0
0 0 0 0 0 0 0 0 0 0 0 0 0 0 0 0 0 0 0 0 0 0 0 0 0 0 0 0 0 0 0 0 0 0 0 0 0 0 0 0 0 0 0
0 0 0 0 0 0 0 0 0 0 0 0 0 0 0 0 0 0 0 0 0 0 0 0 0 0 0 0 0 0 0 0 0 0 0 0 0 0 0 0 0 0 0
0 0 0 0 0 0 0 0 0 0 0 0 0 0 0 0 0 0 0 0 0 0 0 0 0 0 0 0 0 0 0 0 0 0 0 0 0 0 0 0 0 0 0
0 0 0 0 0 0 0 0 0 0 0 0 0 0 0 0 0 0 0 0 0 0 0 0 0 0 0 0 0 0 0 0 0 0 0 0 0 0 0 0 0 0 0
0 0 0 0 0 0 0 0 0 0 0 0 0 0 0 0 0 0 0 0 0 0 0 0 0 0 0 0 0 0 0 0 0 0 0 0 0 0 0 0 0 0 0
0 0 0 0 0 0 0 0 0 0 0 0 0 0 0 0 0 0 0 0 0 0 0 0 0 0 0 0 0 0 0 0 0 0 0 0 0 0 0 0 0 0 0
0 0 0 0 0 0 0 0 0 0 0 0 0 0 0 0 0 0 0 0 0 0 0 0 0 0 0 0 0 0 0 0 0 0 0 0 0 0 0 0 0 0 0
0 0 0 0 0 0 0 0 0 0 0 0 0 0 0 0 0 0 0 0 0 0 0 0 0 0 0 0 0 0 0 0 0 0 0 0 0 0 0 0 0 0 0
0 0 0 0 0 0 0 0 0 0 0 0 0 0 0 0 0 0 0 0 0 0 0 0 0 0 0 0 0 0 0 0 0 0 0 0 0 0 0 0 0 0 0
0 0 0 0 0 0 0 0 0 0 0 0 0 0 0 0 0 0 0 0 0 0 0 0 0 0 0 0 0 0 0 0 0 0 0 0 0 0 0 0 0 0 0
0 0 0 0 0 0 0 0 0 0 0 0 0 0 0 0 0 0 0 0 0 0 0 0 0 0 0 0 0 0 0 0 0 0 0 0 0 0 0 0 0 0 0
0 0 0 0 0 0 0 0 0 0 0 0 0 0 0 0 0 0 0 0 0 0 0 0 0 0 0 0 0 0 0 0 0 0 0 0 0 0 0 0 0 0 0
0 0 0 0 0 0 0 0 0 0 0 0 0 0 0 0 0 0 0 0 0 0 0 0 0 0 0 0 0 0 0 0 0 0 0 0 0 0 0 0 0 0 0
0 0 0 0 0 0 0 0 0 0 0 0 0 0 0 0 0 0 0 0 0 0 0 0 0 0 0 0 0 0 0 0 0 0 0 0 0 0 0 0 0 0 0
0 0 0 0 0 0 0 0 0 0 0 0 0 0 0 0 0 0 0 0 0 0 0 0 0 0 0 0 0 0 0 0 0 0 0 0 0 0 0 0 0 0 0
0 0 0 0 0 0 0 0 0 0 0 0 0 0 0 0 0 0 0 0 0 0 0 0 0 0 0 0 0 0 0 0 0 0 0 0 0 0 0 0 0 0 0
Wind_Speed_500mb
29 29 31 29 26 24 20 16 11 9 8 7 7 5 5 3 2 4 7 8 11 11 7 10 8 5 8 10 11 9 9 10 8 8 15 17 21 17 17 21 22 28 38
25 26 30 29 28 23 19 16 12 8 8 8 10 4 4 5 4 4 5 6 9 9 8 5 7 5 4 9 9 9 8 7 11 16 24 21 19 22 22 22 31 38 44
24 26 27 28 27 22 20 16 10 8 7 7 7 4 6 2 1 5 5 11 12 8 9 6 4 2 3 7 8 6 15 19 19 26 27 27 29 28 29 29 36 41 42
29 27 29 24 24 21 17 11 10 7 6 5 8 6 11 12 5 5 8 13 16 13 8 5 4 4 5 5 9 10 17 17 26 26 27 28 28 29 30 35 41 44 39
33 30 27 24 21 16 11 13 14 11 8 6 7 5 4 7 3 5 13 12 10 10 7 6 6 6 6 5 4 6 21 30 31 25 34 23 22 27 30 35 37 40 41
36 32 27 22 21 17 15 16 14 13 9 7 3 1 5 10 11 10 9 7 10 11 13 11 12 12 14 16 16 18 16 22 33 33 23 25 27 29 35 38 37 38 30
37 34 28 29 28 28 22 18 14 14 12 9 9 9 11 17 18 18 15 14 17 19 22 24 23 22 20 21 26 32 29 28 30 31 26 25 28 34 37 38 36 35 32
37 34 34 37 36 31 28 22 19 18 18 14 13 14 14 16 21 23 22 22 26 29 29 31 35 35 33 29 29 33 39 47 42 35 31 29 32 35 38 38 36 35 36
39 42 40 41 40 37 33 25 18 21 18 20 20 22 8 10 13 24 27 29 31 34 37 40 39 39 37 34 29 27 33 41 44 31 28 33 34 36 35 36 39 41 38
44 44 49 47 45 45 39 30 27 27 29 29 30 31 25 31 23 13 28 35 37 41 45 42 44 37 36 31 27 30 32 33 29 25 28 29 35 34 34 36 39 41 37
51 49 49 53 59 40 39 35 35 37 39 38 36 37 36 38 39 39 30 32 37 41 42 49 44 34 40 30 25 33 33 28 29 32 36 38 34 32 35 37 39 40 41
56 54 53 34 28 37 40 40 45 47 42 42 40 42 39 39 43 38 34 42 29 34 38 44 35 32 30 25 30 26 24 27 33 34 41 32 34 34 36 37 38 40 41
56 51 44 35 36 39 40 42 43 43 43 46 36 39 38 44 43 34 34 33 33 34 33 31 30 24 25 26 22 22 25 29 31 36 29 34 35 36 37 38 38 41 42
36 45 48 38 33 30 35 33 31 35 31 31 35 35 36 26 33 34 30 25 23 24 25 28 26 21 25 18 20 24 28 33 26 25 29 32 33 34 36 38 39 40 40
38 44 41 40 22 29 27 27 32 30 29 31 28 20 24 25 26 27 26 24 19 18 15 18 17 17 18 18 23 26 25 24 25 26 29 31 32 34 34 36 39 39 41
26 40 41 27 37 32 33 37 32 26 23 20 15 17 18 20 24 16 14 17 15 18 17 17 17 20 21 22 21 18 22 24 26 28 29 31 32 33 34 36 36 39 42
26 25 27 33 33 34 43 35 29 19 14 11 13 11 10 13 12 15 15 12 14 14 19 18 15 16 15 15 16 20 23 25 27 29 30 31 30 32 33 33 36 41 46
13 9 6 2 6 6 8 8 9 7 6 4 4 8 8 9 7 8 8 8 8 9 11 12 11 12 13 15 18 21 24 27 28 29 29 28 28 30 31 34 40 45 50
7 4 1 4 6 2 5 9 7 5 6 6 7 7 5 4 3 4 5 6 7 8 9 10 10 11 14 17 19 22 25 27 29 29 26 25 27 28 29 35 43 49 50
18 15 13 16 18 17 13 10 8 9 8 7 12 7 4 2 2 2 4 6 8 10 10 10 10 12 15 18 22 23 25 27 26 26 22 27 27 28 32 39 46 49 51
6 6 10 12 12 13 11 10 9 11 11 10 8 4 3 3 0 3 4 6 8 9 11 13 15 16 19 21 24 27 28 29 26 20 20 23 24 24 35 39 47 51 51
11 12 12 12 12 15 14 14 13 11 9 10 8 8 6 4 1 3 5 8 10 13 16 17 19 21 23 25 27 29 29 29 28 25 29 26 29 27 39 43 50 53 47
15 16 16 17 16 15 17 13 12 12 11 11 9 7 4 4 5 8 11 13 15 18 21 23 25 25 26 27 28 29 30 31 30 30 33 35 36 34 39 43 51 46 62
13 12 12 13 13 13 13 12 10 10 9 7 5 3 4 5 7 11 13 16 19 22 25 27 27 28 29 30 30 30 31 31 32 33 38 45 45 47 45 45 50 55 67
12 11 10 12 13 13 11 10 9 7 4 3 2 3 5 8 11 15 18 21 25 27 29 30 30 31 33 32 30 30 31 35 38 39 41 43 57 68 65 54 52 69 71
8 10 8 8 10 11 11 9 7 5 4 0 2 5 8 12 16 20 23 26 29 31 33 35 36 35 35 33 32 31 33 36 40 43 37 50 60 65 57 63 78 77 75
Wind_Direction_500mb
180 180 180 180 180 177 175 175 180 180 178 174 163 147 160 158 103 38 3 19 4 4 45 63 78 19 351 338 336 345 327 328 325 318 324 344 359 359 340 329 334 327 334
187 183 184 183 183 182 180 177 175 165 166 170 163 148 129 105 100 47 13 29 333 354 59 46 151 113 343 344 344 315 316 309 300 322 330 346 347 325 331 326 329 326 328
189 179 174 175 177 177 180 183 182 181 172 195 152 84 187 180 172 274 297 346 335 351 31 359 73 147 352 350 316 300 300 298 303 313 320 331 333 329 325 328 327 328 330
185 191 188 180 180 186 185 183 154 159 172 236 199 222 249 243 211 282 285 317 313 344 26 26 9 56 84 339 304 290 293 293 304 305 310 320 314 317 323 324 328 329 330
187 190 187 190 193 193 185 176 196 200 207 231 155 87 67 93 226 270 296 291 292 327 343 335 307 306 267 201 232 250 295 298 284 293 299 295 311 317 319 323 325 324 328
189 191 187 180 169 175 188 201 207 217 207 171 171 278 256 266 264 267 272 252 268 294 293 300 296 286 282 284 260 277 264 216 273 290 298 312 315 320 323 322 321 328 339
195 191 187 182 188 198 202 202 213 203 199 199 212 217 246 264 258 258 257 257 261 269 283 293 297 300 285 273 274 274 236 246 266 286 301 310 316 317 312 316 323 329 335
201 189 195 199 203 202 198 192 206 214 213 216 226 236 246 261 248 251 258 265 269 276 285 290 298 301 294 283 276 275 271 259 280 296 300 306 311 310 314 316 320 328 329
204 204 209 211 212 210 206 195 208 219 220 218 234 245 240 251 270 265 258 265 275 284 285 285 291 294 290 284 282 285 280 272 279 283 297 305 309 310 312 320 322 322 326
218 218 220 223 221 216 213 212 219 228 235 239 244 252 261 267 271 251 257 268 262 278 273 283 277 278 285 282 288 286 284 287 284 290 297 307 309 313 318 319 319 321 325
219 225 229 232 232 229 219 219 230 236 241 249 255 264 263 263 269 261 266 269 275 275 271 273 274 284 284 282 299 291 293 294 286 300 306 314 314 317 319 319 322 322 322
225 229 231 231 225 224 233 226 234 241 249 254 259 269 276 275 272 264 268 270 275 267 276 274 270 287 284 281 287 276 284 288 295 301 310 313 320 322 324 323 322 320 322
229 230 216 211 214 225 233 239 247 251 250 252 252 268 269 276 270 276 288 282 278 284 279 284 283 278 281 274 270 283 288 291 298 301 310 320 321 323 323 320 321 323 322
228 224 205 206 203 234 241 245 260 256 261 261 270 269 272 273 289 285 283 282 279 280 277 281 276 269 283 272 283 286 288 294 301 314 316 317 318 319 319 323 324 323 324
210 210 204 189 212 239 237 264 266 271 267 264 266 256 283 289 295 291 284 280 265 266 264 270 258 279 271 277 276 285 294 307 314 316 314 318 320 320 322 321 324 327 328
187 196 188 222 242 233 237 261 265 260 234 224 251 278 289 297 289 285 271 273 267 268 269 267 270 272 271 273 289 305 305 309 312 317 318 318 317 316 320 326 328 326 326
203 218 219 218 226 232 243 245 220 207 222 264 270 266 263 262 255 263 267 272 274 271 270 268 261 264 279 292 305 305 309 313 316 317 316 316 316 320 325 326 326 327 328
86 95 104 256 203 179 181 194 231 204 231 259 238 247 243 258 262 267 271 286 300 296 293 293 293 292 291 301 309 308 310 309 312 313 314 315 320 325 324 325 327 329 329
102 191 214 339 324 285 203 225 229 214 208 236 238 229 206 228 256 280 316 329 336 332 317 310 309 290 296 305 307 306 307 312 316 315 312 317 322 323 321 323 327 327 326
274 282 292 262 256 249 240 214 213 237 234 197 181 173 209 248 323 341 351 337 333 330 324 322 322 315 309 309 306 307 310 312 313 312 311 320 324 322 323 328 325 326 328
172 171 184 184 194 203 226 221 218 191 173 163 200 174 162 141 137 302 339 341 343 331 333 336 329 319 313 310 310 312 312 313 315 305 305 310 320 320 320 322 323 327 330
135 137 146 151 166 161 138 140 140 151 161 158 148 139 143 155 121 351 353 353 343 338 337 331 325 318 315 314 311 310 313 314 322 309 313 319 321 320 318 324 325 330 331
135 133 135 132 138 149 139 144 147 144 139 135 129 121 102 48 20 10 357 343 336 333 330 329 323 318 311 309 310 311 311 311 311 313 314 316 316 318 317 326 327 333 335
127 130 133 136 148 151 139 140 139 125 122 116 99 68 31 8 355 347 343 333 329 328 328 324 318 316 312 308 306 306 306 308 308 314 317 315 317 322 325 333 331 338 336
118 123 131 140 139 142 139 137 133 126 116 100 83 20 353 346 341 334 334 329 325 323 319 317 316 313 307 303 302 303 306 307 307 313 318 316 323 325 326 332 333 338 336
112 118 130 142 144 145 144 148 154 163 161 165 343 331 333 336 333 329 327 322 319 317 315 314 314 309 305 303 302 301 301 302 307 316 315 317 324 331 327 324 331 334 334
Wind_Speed_850mb
29 29 31 29 26 24 20 16 11 9 8 7 7 5 5 3 2 4 7 8 11 11 7 10 8 5 8 10 11 9 9 10 8 8 15 17 21 17 17 21 22 28 38
25 26 30 29 28 23 19 16 12 8 8 8 10 4 4 5 4 4 5 6 9 9 8 5 7 5 4 9 9 9 8 7 11 16 24 21 19 22 22 22 31 38 44
24 26 27 28 27 22 20 16 10 8 7 7 7 4 6 2 1 5 5 11 12 8 9 6 4 2 3 7 8 6 15 19 19 26 27 27 29 28 29 29 36 41 42
29 27 29 24 24 21 17 11 10 7 6 5 8 6 11 12 5 5 8 13 16 13 8 5 4 4 5 5 9 10 17 17 26 26 27 28 28 29 30 35 41 44 39
33 30 27 24 21 16 11 13 14 11 8 6 7 5 4 7 3 5 13 12 10 10 7 6 6 6 6 5 4 6 21 30 31 25 34 23 22 27 30 35 37 40 41
36 32 27 22 21 17 15 16 14 13 9 7 3 1 5 10 11 10 9 7 10 11 13 11 12 12 14 16 16 18 16 22 33 33 23 25 27 29 35 38 37 38 30
37 34 28 29 28 28 22 18 14 14 12 9 9 9 11 17 18 18 15 14 17 19 22 24 23 22 20 21 26 32 29 28 30 31 26 25 28 34 37 38 36 35 32
37 34 34 37 36 31 28 22 19 18 18 14 13 14 14 16 21 23 22 22 26 29 29 31 35 35 33 29 29 33 39 47 42 35 31 29 32 35 38 38 36 35 36
39 42 40 41 40 37 33 25 18 21 18 20 20 22 8 10 13 24 27 29 31 34 37 40 39 39 37 34 29 27 33 41 44 31 28 33 34 36 35 36 39 41 38
44 44 49 47 45 45 39 30 27 27 29 29 30 31 25 31 23 13 28 35 37 41 45 42 44 37 36 31 27 30 32 33 29 25 28 29 35 34 34 36 39 41 37
51 49 49 53 59 40 39 35 35 37 39 38 36 37 36 38 39 39 30 32 37 41 42 49 44 34 40 30 25 33 33 28 29 32 36 38 34 32 35 37 39 40 41
56 54 53 34 28 37 40 40 45 47 42 42 40 42 39 39 43 38 34 42 29 34 38 44 35 32 30 25 30 26 24 27 33 34 41 32 34 34 36 37 38 40 41
56 51 44 35 36 39 40 42 43 43 43 46 36 39 38 44 43 34 34 33 33 34 33 31 30 24 25 26 22 22 25 29 31 36 29 34 35 36 37 38 38 41 42
36 45 48 38 33 30 35 33 31 35 31 31 35 35 36 26 33 34 30 25 23 24 25 28 26 21 25 18 20 24 28 33 26 25 29 32 33 34 36 38 39 40 40
38 44 41 40 22 29 27 27 32 30 29 31 28 20 24 25 26 27 26 24 19 18 15 18 17 17 18 18 23 26 25 24 25 26 29 31 32 34 34 36 39 39 41
26 40 41 27 37 32 33 37 32 26 23 20 15 17 18 20 24 16 14 17 15 18 17 17 17 20 21 22 21 18 22 24 26 28 29 31 32 33 34 36 36 39 42
26 25 27 33 33 34 43 35 29 19 14 11 13 11 10 13 12 15 15 12 14 14 19 18 15 16 15 15 16 20 23 25 27 29 30 31 30 32 33 33 36 41 46
13 9 6 2 6 6 8 8 9 7 6 4 4 8 8 9 7 8 8 8 8 9 11 12 11 12 13 15 18 21 24 27 28 29 29 28 28 30 31 34 40 45 50
7 4 1 4 6 2 5 9 7 5 6 6 7 7 5 4 3 4 5 6 7 8 9 10 10 11 14 17 19 22 25 27 29 29 26 25 27 28 29 35 43 49 50
18 15 13 16 18 17 13 10 8 9 8 7 12 7 4 2 2 2 4 6 8 10 10 10 10 12 15 18 22 23 25 27 26 26 22 27 27 28 32 39 46 49 51
6 6 10 12 12 13 11 10 9 11 11 10 8 4 3 3 0 3 4 6 8 9 11 13 15 16 19 21 24 27 28 29 26 20 20 23 24 24 35 39 47 51 51
11 12 12 12 12 15 14 14 13 11 9 10 8 8 6 4 1 3 5 8 10 13 16 17 19 21 23 25 27 29 29 29 28 25 29 26 29 27 39 43 50 53 47
15 16 16 17 16 15 17 13 12 12 11 11 9 7 4 4 5 8 11 13 15 18 21 23 25 25 26 27 28 29 30 31 30 30 33 35 36 34 39 43 51 46 62
13 12 12 13 13 13 13 12 10 10 9 7 5 3 4 5 7 11 13 16 19 22 25 27 27 28 29 30 30 30 31 31 32 33 38 45 45 47 45 45 50 55 67
12 11 10 12 13 13 11 10 9 7 4 3 2 3 5 8 11 15 18 21 25 27 29 30 30 31 33 32 30 30 31 35 38 39 41 43 57 68 65 54 52 69 71
8 10 8 8 10 11 11 9 7 5 4 0 2 5 8 12 16 20 23 26 29 31 33 35 36 35 35 33 32 31 33 36 40 43 37 50 60 65 57 63 78 77 75
Wind_Direction_850mb
180 180 180 180 180 177 175 175 180 180 178 174 163 147 160 158 103 38 3 19 4 4 45 63 78 19 351 338 336 345 327 328 325 318 324 344 359 359 340 329 334 327 334
187 183 184 183 183 182 180 177 175 165 166 170 163 148 129 105 100 47 13 29 333 354 59 46 151 113 343 344 344 315 316 309 300 322 330 346 347 325 331 326 329 326 328
189 179 174 175 177 177 180 183 182 181 172 195 152 84 187 180 172 274 297 346 335 351 31 359 73 147 352 350 316 300 300 298 303 313 320 331 333 329 325 328 327 328 330
185 191 188 180 180 186 185 183 154 159 172 236 199 222 249 243 211 282 285 317 313 344 26 26 9 56 84 339 304 290 293 293 304 305 310 320 314 317 323 324 328 329 330
187 190 187 190 193 193 185 176 196 200 207 231 155 87 67 93 226 270 296 291 292 327 343 335 307 306 267 201 232 250 295 298 284 293 299 295 311 317 319 323 325 324 328
189 191 187 180 169 175 188 201 207 217 207 171 171 278 256 266 264 267 272 252 268 294 293 300 296 286 282 284 260 277 264 216 273 290 298 312 315 320 323 322 321 328 339
195 191 187 182 188 198 202 202 213 203 199 199 212 217 246 264 258 258 257 257 261 269 283 293 297 300 285 273 274 274 236 246 266 286 301 310 316 317 312 316 323 329 335
201 189 195 199 203 202 198 192 206 214 213 216 226 236 246 261 248 251 258 265 269 276 285 290 298 301 294 283 276 275 271 259 280 296 300 306 311 310 314 316 320 328 329
204 204 209 211 212 210 206 195 208 219 220 218 234 245 240 251 270 265 258 265 275 284 285 285 291 294 290 284 282 285 280 272 279 283 297 305 309 310 312 320 322 322 326
218 218 220 223 221 216 213 212 219 228 235 239 244 252 261 267 271 251 257 268 262 278 273 283 277 278 285 282 288 286 284 287 284 290 297 307 309 313 318 319 319 321 325
219 225 229 232 232 229 219 219 230 236 241 249 255 264 263 263 269 261 266 269 275 275 271 273 274 284 284 282 299 291 293 294 286 300 306 314 314 317 319 319 322 322 322
225 229 231 231 225 224 233 226 234 241 249 254 259 269 276 275 272 264 268 270 275 267 276 274 270 287 284 281 287 276 284 288 295 301 310 313 320 322 324 323 322 320 322
229 230 216 211 214 225 233 239 247 251 250 252 252 268 269 276 270 276 288 282 278 284 279 284 283 278 281 274 270 283 288 291 298 301 310 320 321 323 323 320 321 323 322
228 224 205 206 203 234 241 245 260 256 261 261 270 269 272 273 289 285 283 282 279 280 277 281 276 269 283 272 283 286 288 294 301 314 316 317 318 319 319 323 324 323 324
210 210 204 189 212 239 237 264 266 271 267 264 266 256 283 289 295 291 284 280 265 266 264 270 258 279 271 277 276 285 294 307 314 316 314 318 320 320 322 321 324 327 328
187 196 188 222 242 233 237 261 265 260 234 224 251 278 289 297 289 285 271 273 267 268 269 267 270 272 271 273 289 305 305 309 312 317 318 318 317 316 320 326 328 326 326
203 218 219 218 226 232 243 245 220 207 222 264 270 266 263 262 255 263 267 272 274 271 270 268 261 264 279 292 305 305 309 313 316 317 316 316 316 320 325 326 326 327 328
86 95 104 256 203 179 181 194 231 204 231 259 238 247 243 258 262 267 271 286 300 296 293 293 293 292 291 301 309 308 310 309 312 313 314 315 320 325 324 325 327 329 329
102 191 214 339 324 285 203 225 229 214 208 236 238 229 206 228 256 280 316 329 336 332 317 310 309 290 296 305 307 306 307 312 316 315 312 317 322 323 321 323 327 327 326
274 282 292 262 256 249 240 214 213 237 234 197 181 173 209 248 323 341 351 337 333 330 324 322 322 315 309 309 306 307 310 312 313 312 311 320 324 322 323 328 325 326 328
172 171 184 184 194 203 226 221 218 191 173 163 200 174 162 141 137 302 339 341 343 331 333 336 329 319 313 310 310 312 312 313 315 305 305 310 320 320 320 322 323 327 330
135 137 146 151 166 161 138 140 140 151 161 158 148 139 143 155 121 351 353 353 343 338 337 331 325 318 315 314 311 310 313 314 322 309 313 319 321 320 318 324 325 330 331
135 133 135 132 138 149 139 144 147 144 139 135 129 121 102 48 20 10 357 343 336 333 330 329 323 318 311 309 310 311 311 311 311 313 314 316 316 318 317 326 327 333 335
127 130 133 136 148 151 139 140 139 125 122 116 99 68 31 8 355 347 343 333 329 328 328 324 318 316 312 308 306 306 306 308 308 314 317 315 317 322 325 333 331 338 336
118 123 131 140 139 142 139 137 133 126 116 100 83 20 353 346 341 334 334 329 325 323 319 317 316 313 307 303 302 303 306 307 307 313 318 316 323 325 326 332 333 338 336
112 118 130 142 144 145 144 148 154 163 161 165 343 331 333 336 333 329 327 322 319 317 315 314 314 309 305 303 302 301 301 302 307 316 315 317 324 331 327 324 331 334 334